Overview Statistics Trail Chart Weather Telemetry Raw packets
 

This is the latest recevied weather packets stored in our database for station/object N7ZEF. If no packets are shown the sender has not sent any weather packets the latest 10 day(s).

<< 1 2 3 4 5 6 >>
Time Temp. Humidity Pressure Rain* Wind** Luminosity Snow
1778151180 6.67° C 51% 1019.2 hPa 0 mm - - -
1778150579 6.67° C 52% 1019.2 hPa 0 mm - - -
1778149977 6.67° C 52% 1019.2 hPa 0 mm - - -
1778149376 6.67° C 52% 1019.3 hPa 0 mm - - -
1778148776 6.67° C 52% 1019.4 hPa 0 mm - - -
1778148173 6.67° C 52% 1019.4 hPa 0 mm - - -
1778147576 6.67° C 52% 1019.4 hPa 0 mm - - -
1778146971 6.67° C 52% 1019.6 hPa 0 mm - - -
1778146369 6.67° C 53% 1019.7 hPa 0 mm - - -
1778145768 6.67° C 54% 1019.6 hPa 0 mm - - -
1778145167 6.67° C 54% 1019.6 hPa 0 mm - - -
1778144565 6.67° C 53% 1019.6 hPa 0 mm - - -
1778143964 6.67° C 55% 1019.4 hPa 0 mm - - -
1778143363 6.11° C 57% 1019.7 hPa 0 mm - - -
1778142763 5.56° C 55% 1019.7 hPa 0 mm - - -
1778142161 5.56° C 54% 1019.7 hPa 0 mm - - -
1778141561 5.56° C 56% 1019.7 hPa 0 mm - - -
1778140957 5.56° C 54% 1019.7 hPa 0 mm - - -
1778140357 5.56° C 53% 1019.8 hPa 0 mm - - -
1778139757 6.67° C 53% 1019.9 hPa 0 mm - - -
1778139153 6.11° C 53% 1019.6 hPa 0 mm - - -
1778137951 6.67° C 52% 1019.6 hPa 0 mm - - -
1778137348 6.67° C 51% 1019.7 hPa 0 mm - - -
1778136748 5.56° C 53% 1019.7 hPa 0 mm - - -
1778136146 5.56° C 52% 1019.6 hPa 0 mm - - -

* Rain latest hour (hover to see other rain measurements)
** Current wind speed in m/s (hover to see current wind gust speed)